Regional Weather Roundup
Issued by NWS

Home | Current Version | Previous Version | Graphics & Text | Print | Product List | Glossary On
Versions: 1 2 3 4 5 6 7 8 9 10 11 12 13 14 15 16 17 18 19 20 21 22 23 24 25 26 27 28 29 30 31 32 33 34 35 36 37 38 39 40 41 42 43 44 45 46 47 48 49 50
000
ASUS43 KMKX 221200
RWRWI

WISCONSIN REGIONAL WEATHER ROUNDUP
NATIONAL WEATHER SERVICE MILWAUKEE/SULLIVAN WI
700 AM CDT TUE JUL 22 2014

NOTE: "FAIR" INDICATES FEW OR NO CLOUDS BELOW 12,000 FEET WITH NO
SIGNIFICANT WEATHER AND/OR OBSTRUCTIONS TO VISIBILITY.

WIZ001-002-006>008-014>016-023>028-221300-
NORTHWEST WISCONSIN

CITY           SKY/WX    TMP DP  RH WIND       PRES   REMARKS
SUPERIOR ARPT  MOSUNNY   69  66  89 W10       29.76S
ASHLAND        PTSUNNY   72  68  87 SW12G20   29.75R
6HR MIN TEMP:  67; 6HR MAX TEMP:  80; 6HR PCP:  0.70;

HAYWARD        PTSUNNY   72  66  81 W9G20     29.83R
6HR MIN TEMP:  70; 6HR MAX TEMP:  79; 6HR PCP:  0.04;

SIREN          MOSUNNY   70  64  80 W12       29.84R
RICE LAKE      MOSUNNY   77  72  84 SW9       29.83R
LADYSMITH      CLOUDY    76  71  84 SW8       29.85R
EAU CLAIRE     NOT AVBL
MENOMONIE      CLOUDY    79  73  83 SW9       29.85R HX  82
NEW RICHMOND   MOSUNNY   76  65  67 W16       29.87R
OSCEOLA        SUNNY     74  65  73 W13G20    29.90R
$$

WIZ003>005-009-010-017-018-221300-
NORTH CENTRAL WISCONSIN

CITY           SKY/WX    TMP DP  RH WIND       PRES   REMARKS
WOODRUFF       CLOUDY    72  69  90 S13       29.82F
RHINELANDER    CLOUDY    72  68  87 SW14      29.85F
6HR MIN TEMP:  72; 6HR MAX TEMP:  73; 6HR PCP: TRACE;

EAGLE RIVER    CLOUDY    72  67  85 S5        29.84F
LAND O LAKES   CLOUDY    70  68  93 S5        29.83F FOG
PHILLIPS       CLOUDY    74  70  88 S9G16     29.82S
TOMAHAWK       CLOUDY    71  67  88 S3        29.86F
MEDFORD        CLOUDY    72  69  89 S12       29.87S
MERRILL        CLOUDY    73  69  87 SW7       29.86F
$$

WIZ029-030-035-036-043>047-221300-
CENTRAL WISCONSIN

CITY           SKY/WX    TMP DP  RH WIND       PRES   REMARKS
WAUSAU         PTSUNNY   74  69  85 S12       29.86F
6HR MIN TEMP:  73; 6HR MAX TEMP:  74;

MOSINEE        NOT AVBL
MARSHFIELD     PTSUNNY   74  69  85 S12       29.87F
6HR MIN TEMP:  73; 6HR MAX TEMP:  74;

STEVENS POINT  PTSUNNY   71  67  85 S9        29.89F
WAUPACA        PTSUNNY   74  70  86 S7        29.91R
WAUTOMA        NOT AVBL
WISC RAPIDS    PTSUNNY   76  68  76 S12       29.89F
6HR MIN TEMP:  74; 6HR MAX TEMP:  76; 6HR PCP: TRACE;

CAMP DOUGLAS   NOT AVBL
$$

WIZ011>013-019>022-031-037>040-048>050-221300-
NORTHEAST WISCONSIN

CITY           SKY/WX    TMP DP  RH WIND       PRES   REMARKS
ANTIGO         LGT RAIN  69  68  96 S9        29.90S
STURGEON BAY   PTSUNNY   66  63  88 S13G20    29.93R
6HR MIN TEMP:  66; 6HR MAX TEMP:  68;

GREEN BAY      PTSUNNY   75  68  78 S13       29.91S HAZE
6HR MIN TEMP:  71; 6HR MAX TEMP:  75;

MANITOWOC      NOT AVBL
APPLETON       PTSUNNY   73  66  78 SW14      29.93S
CLINTONVILLE   PTSUNNY   73  68  83 S10       29.89S
OSHKOSH        PTSUNNY   73  68  84 S13G21    29.93R
6HR MIN TEMP:  72; 6HR MAX TEMP:  74;

$$

WIZ032>034-041-042-053>061-221300-
SOUTHWEST WISCONSIN

CITY           SKY/WX    TMP DP  RH WIND       PRES   REMARKS
LA CROSSE      SUNNY     78  69  73 S7        29.87R HX  80
6HR MIN TEMP:  77; 6HR MAX TEMP:  81; 6HR PCP: TRACE;

SPARTA         SUNNY     75  67  74 SW5       29.89S
VIROQUA        FAIR      74  68  81 S15       29.91F
BOSCOBEL       MOSUNNY   77  67  71 S7        29.91F
6HR MIN TEMP:  76; 6HR MAX TEMP:  79; 6HR PCP: TRACE;

PRAIRIE DU CHI MOSUNNY   77  66  68 S6        29.90F
PLATTEVILLE    FAIR      73  68  85 S9        29.97R
$$

WIZ056-057-062-063-064-067-068-221300-
SOUTH CENTRAL WISCONSIN

CITY           SKY/WX    TMP DP  RH WIND       PRES   REMARKS
BARABOO/DELLS  PTSUNNY   74  66  76 S13       29.92R
LONE ROCK      NOT AVBL
WATERTOWN      MOSUNNY   71  67  87 S8        29.97S
MADISON        PTSUNNY   75  66  73 S10       29.95F
6HR MIN TEMP:  74; 6HR MAX TEMP:  76;

MIDDLETON      FAIR      74  66  75 NW8       29.96S
MONROE         MOSUNNY   72  66  83 S17       29.98F
JANESVILLE     SUNNY     73  64  73 S13       29.98F
$$

WIZ051-052-058>065-066-070>072-221300-
SOUTHEAST WISCONSIN

CITY           SKY/WX    TMP DP  RH WIND       PRES   REMARKS
MILWAUKEE      MOSUNNY   72  65  78 S14       29.99F
6HR MIN TEMP:  70; 6HR MAX TEMP:  74;

WAUKESHA       MOSUNNY   70  64  83 S12       30.01F
MILWAUKEE/TIMM SUNNY     72  63  73 MISG      30.00F
RACINE         SUNNY     73  65  75 S13       30.03F
6HR MIN TEMP:  70; 6HR MAX TEMP:  73;

BURLINGTON     SUNNY     69  65  87 S9        30.01F
KENOSHA        SUNNY     72  66  81 S10       30.03S
6HR MIN TEMP:  68; 6HR MAX TEMP:  72;

FOND DU LAC    PTSUNNY   74  66  76 S15       29.94S
6HR MIN TEMP:  73; 6HR MAX TEMP:  75;

SHEBOYGAN      MOSUNNY   72  66  81 S14       29.96F
6HR MIN TEMP:  66; 6HR MAX TEMP:  72;

WEST BEND      PTSUNNY   70  63  78 S7        29.98S
JUNEAU         PTSUNNY   71  52  51 S13       29.97F
$$

LSZ147-162-221300-
LAKE SUPERIOR

STATION/POSITION TIME  TEMP    WIND        PRES    WAVE
                       AIR SEA DIR/SP/G            HT/PER
                 (UTC) (F)     (DEG/KT/KT) (MB)    (FT/S)
W MID LAKE BUOY  1050   51 39  150/ 19/ 21 1004.6F   2/ 4
PORT WING        1100   71     230/ 12/ 19 1007.5R
SAXON HARBOR     1100          190/  6/ 17 1006.4
$$

LMZ867-665-643>646-221300-
LAKE MICHIGAN

STATION/POSITION TIME  TEMP    WIND        PRES    WAVE
                       AIR SEA DIR/SP/G            HT/PER
                 (UTC) (F)     (DEG/KT/KT) (MB)    (FT/S)
N MID LAKE BUOY  1050   62 56  190/ 16/ 17 1013.2F   3/ 4
NORTHPORT PIER   1100   65     160/  9/ 16 1013.2S
KEWAUNEE LAKESHO 1100   55     180/ 15/ 16 1014.5F
SHEBOYGAN LAKESH 1100   66     180/ 21/ 22 1014.6F
PORT WASHINGTON  1140   60     200/  7/ 10 1015.6F
ATWATER BUOY     1100   56     170/  6     1017.0S
MILWAUKEE LAKESH 1100   71     200/ 12/ 14   N/A
S MID LAKE BUOY  1050   70 69  190/ 10/ 12 1017.4R   1/ 3
KENOSHA   LAKESH 1100   63     170/  9/ 11   N/A
$$

TC  - TEMPERATURE IN CELSIUS
VSB - VISIBILITY IN STATUTE MILES
WCI - WIND CHILL INDEX
HX  - HEAT INDEX



USA.gov is the U.S. government's official web portal to all federal, state and local government web resources and services.